CAPE
5 3 0 2 1 0 0 3 0 0 0 0 0 0 0 0 0 0 0 1 20 13 176 108 17 2 0 0 0 0 0 0 3 12 58 1 7 0 0 0 0 0 0 0
11 0 1 7 12 11 14 2 0 0 0 0 0 0 0 0 0 0 0 1 0 99 132 53 29 2 0 6 0 0 8 1 26 6 0 8 0 0 0 0 0 0 0 0
0 0 2 1 0 0 4 5 7 0 0 0 0 0 0 0 1 4 0 0 0 103 89 19 0 1 6 1 0 0 1 19 57 3 0 0 0 0 0 0 0 0 0 0
0 4 0 0 0 4 0 26 1 0 0 0 0 0 0 0 0 0 0 22 84 114 69 7 15 2 0 0 0 10 0 27 96 20 0 1 2 0 0 0 0 0 0 0
0 0 0 0 0 0 0 0 0 0 0 0 0 0 0 0 3 6 2 0 66 30 69 55 91 57 38 5 5 0 6 47 56 55 30 7 13 10 31 2 17 0 0 0
0 0 0 0 0 0 0 0 0 0 0 0 0 0 0 0 17 1 0 0 23 21 11 82 88 2 24 20 5 0 35 54 63 55 64 32 10 26 32 83 85 50 43 57
0 0 0 1 0 0 0 0 1 0 1 0 0 0 0 0 2 13 1 0 0 2 9 22 10 33 22 16 0 0 0 9 21 24 69 35 21 10 21 51 102 107 169 190
0 0 0 0 0 0 0 0 0 0 0 0 0 0 0 0 0 0 4 0 0 0 2 3 44 33 22 17 12 4 2 2 3 2 0 6 3 0 1 19 41 144 216 294
0 0 0 0 0 0 0 0 0 0 0 0 0 0 0 0 0 0 0 0 0 0 1 5 30 9 6 6 6 3 13 5 8 1 2 5 0 0 0 2 8 33 57 132
0 0 0 0 0 0 0 0 0 0 0 0 1 0 1 0 0 0 0 0 0 0 0 0 0 0 18 22 30 13 10 4 13 8 4 21 26 23 19 21 27 26 47 62
0 0 0 0 0 0 0 0 0 0 0 0 0 0 1 0 0 0 0 0 0 0 0 0 0 0 0 0 0 1 35 8 13 10 21 21 20 12 10 17 24 46 59 56
0 0 0 0 0 0 0 0 0 0 0 0 0 0 0 0 0 0 0 0 0 0 0 0 0 0 0 0 0 0 11 50 13 20 13 29 7 12 16 17 19 19 9 35
0 0 0 0 0 0 0 0 0 0 0 0 0 0 0 0 0 0 0 0 0 0 0 0 0 0 0 0 0 0 0 3 29 27 24 8 20 31 24 31 34 41 56 27
0 0 0 0 0 0 0 0 0 0 0 0 0 0 0 0 0 0 0 0 0 0 0 0 0 0 0 0 0 0 0 0 2 22 55 43 15 35 22 8 7 19 22 16
0 0 0 0 0 0 0 0 0 0 0 0 0 0 0 0 0 0 0 0 0 0 0 0 0 0 0 0 0 0 0 0 0 0 0 5 19 21 16 17 0 0 0 0
0 0 0 0 0 0 0 0 0 0 0 0 0 0 0 0 0 0 0 0 0 0 0 0 0 0 0 0 0 0 0 0 0 0 0 0 0 0 0 0 0 0 0 0
0 0 0 0 0 0 0 0 0 0 0 0 0 0 0 0 0 0 0 0 0 0 0 0 0 0 0 0 0 0 0 0 0 0 0 0 0 0 0 0 0 0 0 0
0 0 0 0 0 0 0 0 0 0 0 0 0 0 0 0 0 0 0 0 0 0 0 0 0 0 0 0 0 0 0 0 0 0 0 0 0 0 0 0 0 0 0 0
0 0 0 0 0 0 0 0 0 0 0 0 0 0 0 0 0 0 0 0 0 0 0 0 0 0 0 0 0 0 0 0 0 0 0 0 0 0 0 0 0 0 0 0
0 0 0 0 0 0 0 0 0 0 0 0 0 0 0 0 0 0 0 0 0 0 0 0 0 0 0 0 0 0 0 0 0 0 0 0 0 0 0 0 0 0 0 0
0 0 0 0 0 0 0 0 0 0 0 0 0 0 0 0 0 0 0 0 0 0 0 0 0 0 0 0 0 0 0 0 0 0 0 0 0 0 0 0 0 0 0 0
0 0 0 0 0 0 0 0 0 0 0 0 0 0 0 0 0 0 0 0 0 0 0 0 0 0 0 0 0 0 0 0 0 0 0 0 0 0 0 0 0 0 0 0
0 0 0 0 0 0 0 0 0 0 0 0 0 0 0 0 0 0 0 0 0 0 0 0 0 0 0 0 0 0 0 0 0 0 0 0 0 0 0 0 0 0 0 0
0 0 0 0 0 0 0 0 0 0 0 0 0 0 0 0 0 0 0 0 0 0 0 0 0 0 0 0 0 0 0 0 0 0 0 0 0 0 0 0 0 0 0 0
0 0 0 0 0 0 0 0 0 0 0 0 0 0 0 0 0 0 0 0 0 0 0 0 0 0 0 0 0 0 0 0 0 0 0 0 0 0 0 0 0 0 0 0
0 0 0 0 0 0 0 0 0 0 0 0 0 0 0 0 0 0 0 0 0 0 0 0 0 0 0 0 0 0 0 0 0 0 0 0 0 0 0 0 0 0 0 0
CIN
-14 -0 -0 -6 -4 -7 -0 -6 -1 -0 -0 -0 -0 -0 -0 -0 -0 -0 -0 -3 -3 -30 -11 -55 -178 -240 -0 -0 -0 -0 -0 -0 -59 -84 -52 -0 -63 -0 -0 -0 -0 -0 -0 -0
-3 -0 -12 -14 -10 -3 -3 -1 -0 -0 -0 -0 -0 -0 -0 -1 -0 -0 -0 -11 -0 -10 -92 -130 -161 -212 -0 -111 -0 -0 -10 -49 -24 -91 -12 -99 -0 -0 -0 -0 -0 -0 -0 -0
-0 -4 -3 -3 -0 -7 -11 -11 -4 -0 -0 -0 -0 -0 -0 -0 -2 -5 -17 -8 -0 -10 -17 -74 -0 -45 -140 -136 -0 -0 -17 -17 -2 -36 -0 -0 -0 -0 -0 -0 -0 -0 -0 -0
-0 -10 -0 -0 -0 -7 -0 -6 -6 -0 -0 -0 -0 -0 -0 -0 -0 -0 -0 -39 -34 -15 -22 -52 -44 -16 -0 -0 -0 -9 -0 -38 -10 -13 -14 -69 -65 -0 -0 -0 -0 -0 -0 -0
-0 -0 -0 -0 -0 -0 -0 -0 -0 -0 -0 -0 -0 -0 -0 -0 -0 -0 -0 -0 -13 -34 -28 -20 -12 -47 -34 -119 -50 -0 -20 -32 -11 -15 -32 -51 -69 -57 -71 -2 -61 -0 -0 -0
-0 -0 -0 -6 -0 -0 -2 -0 -0 -0 -0 -0 -0 -0 -0 -0 -0 -1 -0 -0 -3 -10 -37 -28 -8 -17 -22 -18 -15 -0 -46 -8 -11 -41 -30 -33 -51 -49 -38 -43 -46 -50 -64 -52
-0 -0 -0 -4 -0 -0 -0 -0 -14 -0 -10 -0 -0 -0 -0 -0 -3 -0 -3 -0 -0 -5 -29 -35 -51 -21 -28 -11 -0 -0 -0 -9 -5 -26 -23 -39 -44 -61 -44 -10 -35 -47 -26 -27
-0 -0 -0 -0 -5 -0 -0 -0 -0 -0 -0 -0 -0 -0 -5 -0 -0 -0 -6 -0 -0 -0 -4 -6 -5 -7 -23 -9 -24 -35 -12 -5 -21 -22 -29 -21 -27 -1 -29 -22 -33 -53 -63 -61
-0 -0 -0 -0 -0 -0 -0 -0 -0 -0 -0 -0 -0 -0 -0 -0 -0 -0 -0 -0 -0 -0 -3 -6 -3 -1 -36 -34 -26 -26 -41 -10 -9 -4 -3 -10 -0 -0 -33 -67 -73 -36 -64 -86
-0 -0 -0 -0 -0 -0 -0 -0 -0 -0 -0 -0 -3 -0 -1 -0 -0 -0 -0 -0 -0 -0 -0 -0 -0 -0 -28 -36 -24 -10 -25 -25 -16 -14 -12 -12 -8 -6 -13 -18 -26 -38 -63 -88
-0 -0 -0 -0 -0 -0 -0 -0 -0 -0 -0 -0 -0 -0 -22 -0 -0 -0 -0 -0 -0 -0 -0 -0 -0 -0 -0 -0 -0 -9 -4 -15 -16 -7 -6 -11 -22 -43 -39 -28 -16 -29 -35 -57
-0 -0 -0 -0 -0 -0 -0 -0 -0 -0 -0 -0 -0 -1 -0 -0 -0 -0 -0 -0 -0 -0 -0 -0 -0 -0 -0 -0 -0 -0 -18 -12 -17 -21 -26 -12 -30 -30 -60 -27 -12 -38 -15 -31
-0 -0 -0 -0 -0 -0 -0 -0 -0 -0 -0 -0 -0 -0 -0 -0 -10 -0 -0 -0 -0 -0 -0 -0 -0 -0 -0 -0 -0 -0 -23 -74 -26 -15 -16 -25 -26 -6 -15 -9 -16 -7 -0 -10
-0 -0 -0 -0 -0 -0 -0 -0 -0 -0 -0 -0 -0 -0 -0 -0 -0 -0 -0 -0 -0 -0 -0 -0 -0 -0 -0 -0 -0 -0 -0 -0 -87 -50 -9 -2 -1 -20 -11 -8 -21 -13 -5 -5
-0 -0 -0 -0 -0 -0 -0 -0 -0 -0 -0 -0 -0 -0 -0 -0 -0 -0 -0 -0 -0 -0 -0 -0 -0 -0 -0 -0 -0 -0 -0 -0 -0 -0 -23 -81 -34 -37 -44 -54 -0 -0 -0 -0
-0 -0 -0 -0 -0 -0 -0 -0 -0 -0 -0 -0 -0 -0 -0 -0 -0 -0 -0 -0 -0 -0 -0 -0 -0 -0 -0 -0 -0 -0 -0 -0 -0 -0 -0 -0 -0 -109 -51 -0 -0 -0 -0 -0
-0 -0 -0 -0 -0 -0 -0 -0 -0 -0 -0 -0 -0 -0 -0 -0 -0 -0 -0 -0 -0 -0 -0 -0 -0 -0 -0 -0 -0 -0 -0 -0 -0 -0 -0 -0 -0 -0 -0 -0 -0 -0 -0 -0
-0 -0 -0 -0 -0 -0 -0 -0 -0 -0 -0 -0 -0 -0 -0 -0 -0 -0 -0 -0 -0 -0 -0 -0 -0 -0 -0 -0 -0 -0 -0 -0 -0 -0 -0 -0 -0 -0 -0 -0 -0 -0 -0 -0
-0 -0 -0 -0 -0 -0 -0 -0 -0 -0 -0 -0 -0 -0 -0 -0 -0 -0 -0 -0 -0 -0 -0 -0 -0 -0 -0 -0 -0 -0 -0 -0 -0 -0 -0 -0 -0 -0 -0 -0 -0 -0 -0 -0
-0 -0 -0 -0 -0 -0 -0 -0 -0 -0 -0 -0 -0 -0 -0 -0 -0 -0 -0 -0 -0 -0 -0 -0 -0 -0 -0 -0 -0 -0 -0 -0 -0 -0 -0 -0 -0 -0 -0 -0 -0 -0 -0 -0
-0 -0 -0 -0 -0 -0 -0 -0 -0 -0 -0 -0 -0 -0 -0 -0 -0 -0 -0 -0 -0 -0 -0 -0 -0 -0 -0 -0 -0 -0 -0 -0 -0 -0 -0 -0 -0 -0 -0 -0 -0 -0 -0 -0
-0 -0 -0 -0 -0 -0 -0 -0 -0 -0 -0 -0 -0 -0 -0 -0 -0 -0 -0 -0 -0 -0 -0 -0 -0 -0 -0 -0 -0 -0 -0 -0 -0 -0 -0 -0 -0 -0 -0 -0 -0 -0 -0 -0
-0 -0 -0 -0 -0 -0 -0 -0 -0 -0 -0 -0 -0 -0 -0 -0 -0 -0 -0 -0 -0 -0 -0 -0 -0 -0 -0 -0 -0 -0 -0 -0 -0 -0 -0 -0 -0 -0 -0 -0 -0 -0 -0 -0
-0 -0 -0 -0 -0 -0 -0 -0 -0 -0 -0 -0 -0 -0 -0 -0 -0 -0 -0 -0 -0 -0 -0 -0 -0 -0 -0 -0 -0 -0 -0 -0 -0 -0 -0 -0 -0 -0 -0 -0 -0 -0 -0 -0
-0 -0 -0 -0 -0 -0 -0 -0 -0 -0 -0 -0 -0 -0 -0 -0 -0 -0 -0 -0 -0 -0 -0 -0 -0 -0 -0 -0 -0 -0 -0 -0 -0 -0 -0 -0 -0 -0 -0 -0 -0 -0 -0 -0
-0 -0 -0 -0 -0 -0 -0 -0 -0 -0 -0 -0 -0 -0 -0 -0 -0 -0 -0 -0 -0 -0 -0 -0 -0 -0 -0 -0 -0 -0 -0 -0 -0 -0 -0 -0 -0 -0 -0 -0 -0 -0 -0 -0
Wind_Speed
10 7 5 4 3 15 26 31 29 30 23 22 3 4 16 29 17 18 19 30 28 30 32 27 31 34 31 30 26 33 23 29 23 25 27 29 30 28 26 25 22 22 21 19
8 6 4 3 1 11 32 31 33 29 29 23 14 12 28 26 9 16 21 23 25 27 18 20 27 33 33 26 28 26 32 24 26 30 28 26 25 27 25 25 24 23 21 20
6 5 10 16 15 26 29 29 27 31 31 26 25 19 31 22 16 15 17 21 20 7 15 16 19 26 26 20 23 29 28 32 30 26 26 29 29 22 25 27 26 24 22 21
9 11 14 16 17 20 20 22 29 30 27 22 22 17 23 18 18 16 14 15 4 10 10 6 14 24 23 12 19 23 25 29 27 26 25 26 31 33 30 28 26 25 24 24
13 14 15 17 19 21 20 30 30 28 25 21 16 14 17 17 17 18 14 14 13 7 6 6 15 8 15 7 10 15 21 25 27 26 23 24 25 29 29 26 30 28 27 26
14 14 18 20 17 14 26 20 21 19 17 12 13 14 14 15 17 19 17 16 11 14 8 3 6 6 5 9 9 15 18 20 25 27 23 24 26 24 26 35 33 30 30 29
19 21 19 22 18 15 14 13 8 7 11 11 12 9 11 16 18 17 14 15 11 15 14 12 7 8 7 7 10 20 24 24 16 18 23 27 22 16 24 26 29 30 29 30
28 28 27 19 19 14 14 9 11 3 7 11 10 11 13 13 14 17 15 15 10 12 8 5 9 8 6 9 14 16 15 14 14 17 16 21 20 21 20 27 25 24 27 28
26 29 24 22 17 19 18 19 8 7 9 8 10 11 13 14 15 14 13 14 12 8 6 9 14 11 9 11 11 13 13 15 17 16 18 16 18 18 23 26 29 28 29 27
20 29 28 25 22 20 22 17 21 9 13 7 12 10 13 14 14 15 16 14 16 16 16 11 9 13 18 17 15 17 14 14 16 16 11 18 21 14 17 24 23 24 24 20
19 26 28 27 30 29 23 22 20 20 9 9 10 12 14 13 14 14 15 15 17 16 16 16 16 15 13 14 17 18 23 20 12 11 12 14 14 19 16 20 23 24 25 26
19 25 32 31 23 21 24 22 22 24 17 7 8 10 14 14 15 15 16 14 15 17 18 17 16 16 15 15 14 14 18 24 13 27 26 24 22 22 25 27 24 25 26 25
18 24 30 29 24 23 24 21 21 22 20 18 11 11 14 15 16 17 17 18 18 18 20 19 17 17 16 16 16 16 16 15 19 8 27 33 27 29 31 34 40 39 26 34
21 25 29 34 29 22 24 20 20 22 24 22 18 12 17 17 17 18 18 18 19 19 18 18 19 18 17 16 16 18 18 18 15 13 19 18 19 23 21 26 23 24 27 29
21 26 23 23 21 21 21 21 21 24 22 21 19 16 8 19 19 19 19 19 19 19 19 19 19 18 17 17 17 18 18 18 16 13 13 14 14 14 14 18 17 17 19 19
17 22 21 23 19 21 22 20 21 20 21 18 16 14 13 11 11 20 19 18 19 20 19 19 19 18 18 19 19 18 19 18 16 15 13 15 17 16 17 14 16 16 16 16
19 21 20 22 17 16 22 19 19 19 19 18 20 17 16 14 13 11 10 19 20 20 20 20 20 19 19 20 20 19 19 18 17 16 16 16 17 17 18 17 15 17 16 16
18 20 20 20 19 25 17 16 16 16 14 15 15 15 16 16 16 15 13 11 11 19 21 21 21 21 21 22 21 21 20 20 19 18 18 18 19 20 19 19 19 18 19 19
17 18 18 20 19 16 15 15 17 17 15 15 15 15 15 15 14 12 13 12 11 10 10 10 22 22 23 23 23 23 22 22 21 22 22 22 22 21 21 21 21 21 20 22
16 17 16 16 18 18 18 17 18 18 15 16 16 15 15 15 13 11 12 11 11 10 10 9 10 18 23 24 24 23 24 25 26 27 27 27 26 26 25 24 22 21 22 24
13 13 12 12 13 11 12 17 18 16 15 17 16 14 14 12 11 12 10 10 10 10 10 10 10 10 9 11 23 24 26 27 29 29 29 29 29 29 28 28 27 26 26 24
12 12 11 12 11 12 14 16 14 14 16 15 14 13 12 10 9 8 9 9 9 9 9 10 10 10 10 9 8 6 5 27 29 30 31 31 31 30 29 29 28 28 28 28
13 10 13 7 8 9 9 8 8 10 11 11 10 10 10 9 8 8 7 8 8 8 8 9 9 9 9 8 8 7 5 14 27 28 28 29 29 29 29 29 29 29 29 29
14 10 13 17 12 4 6 9 3 5 6 8 8 9 9 8 8 6 6 6 6 7 8 8 8 8 7 7 7 6 4 14 24 26 27 28 28 28 27 26 26 26 28 28
17 12 13 12 13 3 6 7 7 3 5 6 8 8 8 7 6 6 5 5 5 6 7 7 6 6 5 5 6 7 9 24 26 26 26 27 28 29 28 27 26 27 26 26
14 14 11 12 12 12 14 15 3 3 3 4 5 7 8 7 8 8 6 6 6 6 7 6 5 4 4 4 5 10 14 20 23 19 27 27 27 28 28 29 29 26 26 27
Wind_Direction
129 108 136 170 25 331 310 266 258 277 339 354 65 253 258 276 231 222 219 264 247 227 220 218 223 224 233 237 248 232 236 211 217 218 218 225 221 222 220 217 217 213 219 215
125 165 185 198 301 335 291 291 273 293 282 329 245 252 310 298 213 213 228 236 226 216 218 220 221 223 225 236 243 246 239 242 235 233 230 222 221 218 218 222 219 217 215 216
100 67 34 14 359 325 304 293 290 282 293 308 303 354 336 329 324 289 263 259 246 201 211 211 217 221 227 235 247 243 243 239 239 232 229 226 229 226 223 223 221 219 218 221
68 58 26 9 1 346 326 301 288 284 291 294 312 268 332 323 327 322 304 300 291 214 209 194 224 221 232 260 255 255 249 239 240 230 224 221 229 226 229 223 224 225 225 227
56 40 30 22 9 353 331 285 275 275 274 288 305 316 314 322 338 330 316 311 257 218 149 225 230 241 244 273 266 264 255 246 237 226 225 226 229 228 228 231 230 230 230 229
55 56 41 28 17 27 313 294 275 272 268 283 313 288 305 314 316 337 332 325 295 242 233 254 265 260 290 269 291 279 269 253 240 230 225 227 231 230 231 231 233 231 231 230
58 54 49 42 57 93 291 314 325 294 256 259 288 300 320 317 325 325 319 328 313 264 255 242 246 254 44 320 321 273 268 266 222 214 216 221 219 217 235 231 228 227 228 230
54 52 50 54 74 106 135 184 338 322 284 240 282 257 326 319 319 324 323 334 315 335 251 249 251 279 331 11 294 280 264 273 211 207 215 221 227 237 234 241 235 225 225 228
60 58 55 68 94 105 117 120 229 276 250 247 260 278 286 322 333 328 327 336 313 313 309 287 258 294 317 316 318 290 270 276 252 230 229 238 235 236 231 236 236 239 236 237
70 63 63 76 94 102 104 120 121 198 212 263 248 278 288 314 328 342 341 333 328 329 337 331 290 267 248 251 282 275 297 287 262 261 228 237 235 236 227 231 234 239 241 240
80 74 71 81 81 84 94 100 114 131 234 267 266 267 305 311 321 333 342 341 343 336 328 327 331 331 309 281 251 248 236 257 285 275 255 243 238 241 243 242 245 246 249 249
86 84 74 76 92 98 94 94 107 109 138 281 284 289 321 321 331 334 338 338 342 348 346 337 330 330 332 331 323 288 244 230 142 215 231 238 248 252 253 256 259 257 257 256
88 83 76 77 87 92 90 92 101 108 112 124 341 284 316 326 336 331 336 341 343 346 349 349 345 341 333 335 331 333 330 297 262 301 230 214 245 241 245 250 241 252 264 254
93 87 83 78 84 94 88 91 94 100 97 104 118 287 297 311 321 332 329 335 343 345 344 345 350 344 338 333 319 324 328 332 330 310 268 267 269 269 284 258 270 270 257 264
97 85 90 92 93 95 94 92 92 90 101 97 107 114 171 311 313 321 326 332 334 335 340 342 344 340 342 340 333 327 324 317 322 326 314 288 290 293 288 276 281 283 278 280
104 88 91 89 97 92 91 96 95 96 94 100 106 109 117 127 134 320 320 322 324 330 332 332 331 332 333 335 336 332 332 330 327 320 317 309 297 301 300 300 293 288 297 291
92 87 87 83 95 97 88 99 101 96 98 98 90 98 106 110 110 125 158 322 321 321 322 323 324 325 326 328 326 328 329 331 334 327 317 313 311 306 309 305 293 298 299 298
86 79 82 81 86 77 99 106 106 101 105 108 105 108 109 102 106 114 120 130 156 307 312 312 312 315 318 319 321 322 325 327 326 322 316 313 308 304 302 300 297 294 292 289
75 75 73 71 79 89 97 104 99 97 95 115 116 114 111 105 106 112 118 120 126 144 164 271 313 312 312 316 315 315 319 319 318 316 314 309 306 304 302 297 295 292 291 287
62 42 68 70 69 74 80 96 94 90 93 110 115 118 115 106 103 110 113 120 127 131 138 149 173 323 314 314 318 317 313 310 309 307 306 304 302 299 298 298 297 297 294 290
42 57 70 73 75 88 109 92 90 86 89 100 113 119 118 116 113 107 114 119 119 123 120 135 147 144 152 349 324 318 314 310 306 305 306 305 303 300 297 296 295 294 293 293
34 43 60 59 66 66 86 77 82 82 78 94 107 117 128 132 125 123 117 117 117 115 118 121 121 121 143 144 127 133 315 313 309 307 305 304 304 304 302 298 296 295 293 290
2 30 14 73 61 53 117 80 114 85 80 91 105 113 133 131 134 126 132 132 132 141 138 133 120 113 120 131 126 102 175 354 321 318 316 311 309 307 305 301 298 295 293 290
345 351 348 346 21 143 181 184 86 108 108 100 98 99 109 119 122 127 136 155 157 157 157 144 141 138 117 98 91 92 102 19 342 332 324 320 316 312 310 308 304 300 296 292
323 339 337 335 230 267 227 198 183 129 92 81 75 80 87 95 110 113 118 121 144 156 156 139 129 141 134 97 61 50 35 341 334 332 329 325 321 318 314 312 309 306 303 297
312 319 323 328 338 340 340 342 164 163 137 99 78 62 60 63 64 66 85 94 102 121 129 122 104 103 94 66 40 17 8 352 343 350 329 328 327 323 319 314 310 312 309 305